Wind_Speed
17 21 12 13 7 18 5 6 8 5 16 22 23 18 17 21 19 21 15 15 15 15 17 20 16 13 14 11 12 12 12 16 15 16 13 8 8 9 4 8 9 10 9 10
19 21 15 8 3 3 7 8 2 6 14 20 15 16 21 23 30 27 20 17 15 10 6 12 15 14 15 16 13 10 13 14 15 15 21 16 14 9 6 8 8 11 11 10
17 22 16 7 3 6 9 10 16 20 23 4 4 17 20 24 28 24 38 19 15 12 6 9 13 13 11 12 13 14 14 12 13 13 13 13 13 12 8 6 5 8 9 10
20 25 19 9 8 5 12 12 19 6 11 6 11 13 21 29 23 30 28 32 26 27 10 3 14 14 14 13 12 10 12 14 11 8 8 8 10 11 10 11 13 9 8 10
20 28 22 23 10 11 10 25 21 13 13 15 10 24 25 26 21 21 26 30 34 20 10 2 8 2 8 10 10 11 9 9 12 11 7 6 8 11 11 10 9 11 9 10
22 27 23 16 22 18 14 20 10 17 8 9 4 17 27 22 16 19 18 29 38 27 22 17 5 8 2 8 11 13 13 14 14 11 12 11 12 13 13 11 10 11 13 13
25 33 27 14 17 19 23 25 8 6 8 11 20 22 20 16 17 18 21 20 25 22 23 17 5 9 3 4 6 7 9 16 20 17 16 18 18 20 19 17 15 14 13 15
24 37 31 23 27 24 22 18 21 8 13 26 14 23 27 23 22 23 16 20 20 18 15 15 12 5 3 9 10 13 17 19 20 21 20 18 22 24 23 22 21 20 18 16
20 25 27 24 21 21 25 20 14 13 22 11 28 33 31 24 23 20 27 16 15 17 16 12 6 5 17 8 16 19 22 25 26 27 23 23 26 26 27 27 24 25 23 21
21 15 12 26 25 27 20 22 19 16 16 20 21 26 25 23 17 20 24 28 23 14 12 8 6 8 13 19 21 24 29 29 29 32 32 30 29 25 24 26 28 25 25 24
27 24 17 19 29 25 28 29 19 17 12 18 23 20 21 29 32 29 22 25 22 14 14 18 22 24 22 18 21 26 27 23 27 30 34 35 35 32 32 28 26 25 24 25
33 27 22 19 16 15 16 19 15 14 9 21 29 31 29 33 30 25 20 6 2 8 16 12 11 10 23 20 16 24 31 32 36 37 35 34 35 38 40 33 29 27 26 25
33 30 22 17 23 19 16 20 18 16 28 24 26 29 30 32 32 36 21 4 12 14 16 14 16 17 17 17 24 29 32 33 37 37 32 34 35 33 38 35 33 29 27 27
30 28 22 19 23 39 30 25 27 29 33 33 32 33 33 32 31 23 13 11 13 18 23 22 19 18 20 23 25 28 33 36 37 37 35 35 32 30 30 30 30 30 31 29
39 31 24 28 28 26 36 26 26 31 35 29 18 21 14 6 16 13 16 14 19 22 24 25 28 27 29 30 30 31 34 36 37 36 35 34 34 32 30 31 30 30 30 31
40 34 26 31 28 40 27 36 31 25 34 25 19 17 6 18 29 18 17 22 22 25 28 29 30 32 33 33 34 36 37 37 38 38 36 36 35 34 33 33 33 32 33 33
43 37 22 10 14 19 22 25 27 27 31 26 33 27 27 30 27 25 25 23 22 24 27 29 31 34 33 32 35 37 37 37 37 36 35 35 35 35 34 34 34 33 33 34
49 43 21 15 19 14 15 23 31 33 34 29 36 18 18 20 21 21 23 24 23 24 28 31 33 34 32 33 37 39 38 37 36 35 36 36 35 35 35 35 34 35 35 36
50 35 20 17 22 27 20 19 33 43 29 17 18 23 26 23 23 23 25 25 26 28 30 32 33 34 34 35 38 38 38 37 36 36 35 35 35 35 35 36 36 36 37 39
52 35 25 17 19 22 25 21 23 23 14 19 23 28 25 22 24 25 27 28 29 30 31 32 32 34 35 36 37 36 37 36 36 36 35 35 34 35 35 36 36 37 39 40
54 34 30 22 22 24 28 25 21 22 29 31 26 26 25 24 24 26 30 32 33 36 36 36 36 36 36 38 36 35 36 36 36 35 35 35 35 36 37 38 38 38 37 38
53 38 29 29 33 32 31 31 28 30 33 44 23 23 24 26 27 30 32 33 35 36 36 37 37 38 37 36 35 36 36 36 36 36 37 38 38 38 38 37 37 37 37 38
40 40 39 41 41 40 36 35 28 28 36 17 22 22 25 26 29 31 32 33 35 35 37 38 37 37 34 34 34 36 36 37 38 38 37 37 37 36 37 37 38 39 40 41
42 40 41 45 49 45 49 33 28 37 22 19 25 27 28 29 30 32 31 31 33 35 36 37 35 32 32 34 34 35 37 38 37 36 36 36 35 36 37 38 39 40 41 42
46 45 41 44 37 36 28 28 28 25 24 25 29 31 31 32 33 30 30 31 32 33 33 32 31 31 33 33 35 36 36 35 34 32 32 34 36 37 39 41 42 44 45 45
39 41 38 21 26 28 29 31 34 34 31 28 33 31 34 34 32 30 30 32 34 33 30 28 30 31 32 34 35 35 33 31 31 31 34 35 38 40 41 41 43 44 45 48
Wind_Direction
189 174 158 129 143 197 137 30 51 232 294 316 319 335 339 349 352 356 18 2 14 9 59 75 81 69 67 59 74 74 71 57 43 33 23 32 48 43 60 45 60 51 44 33
205 184 178 94 190 150 134 43 345 228 268 300 288 320 323 334 329 321 346 0 355 15 13 60 61 53 56 42 43 35 25 31 45 40 36 42 47 39 32 44 31 45 35 36
211 185 154 136 194 176 178 169 242 239 260 277 294 305 300 314 302 316 334 338 339 311 23 2 354 11 41 40 27 21 16 16 25 36 53 53 38 36 20 6 358 23 25 28
214 190 160 152 264 186 145 239 248 249 259 265 323 318 287 278 309 322 337 332 287 240 146 7 353 348 349 1 355 10 7 349 354 19 30 42 40 25 16 3 4 11 2 2
221 194 186 183 179 195 244 227 229 225 276 243 240 270 284 272 309 315 306 303 291 223 290 151 268 301 321 322 323 328 336 333 335 334 342 0 11 10 1 348 349 349 349 340
203 194 178 183 199 194 237 270 247 245 237 195 208 281 246 261 291 299 316 291 307 319 323 352 22 289 286 319 330 317 307 316 306 307 315 327 342 346 339 330 314 315 314 317
200 185 176 188 208 208 228 237 192 207 252 238 264 260 278 287 277 297 295 287 289 311 315 325 282 287 260 14 13 311 337 335 336 306 303 310 314 321 323 316 308 301 299 305
218 191 186 197 207 201 234 255 236 218 281 271 285 301 282 257 262 269 263 283 293 323 307 322 285 251 316 315 326 320 320 318 322 320 325 314 304 304 304 304 305 298 291 286
208 199 204 191 227 216 225 234 189 236 259 293 278 272 272 270 279 275 278 290 290 300 315 304 225 165 258 310 309 309 307 311 317 318 315 309 306 309 311 303 290 289 287 282
186 190 195 197 215 211 244 233 208 226 258 296 273 281 282 273 251 310 300 284 268 273 279 286 295 293 300 300 300 303 304 309 311 313 316 309 302 300 299 302 296 289 289 286
179 189 172 203 221 233 252 209 208 212 216 282 290 271 281 282 275 292 278 284 204 253 296 310 312 296 298 294 301 303 297 303 308 307 310 304 299 295 299 297 290 281 288 289
177 182 181 200 263 246 219 217 222 236 257 271 266 273 284 294 304 275 299 161 356 336 355 253 317 342 288 283 297 306 316 311 309 315 304 306 311 288 291 292 293 283 282 283
178 183 189 203 222 228 232 238 233 240 260 259 261 274 285 291 292 295 330 170 348 334 333 338 346 328 319 313 308 308 305 302 299 307 313 306 309 295 285 289 293 289 284 284
189 182 200 218 238 212 219 243 216 232 239 246 257 271 298 288 292 296 323 307 322 326 327 324 318 313 315 311 308 303 303 303 307 309 308 305 302 299 295 292 289 287 287 287
189 191 216 223 223 214 202 216 225 234 237 261 251 261 247 249 300 310 317 316 323 322 313 316 319 320 317 316 315 313 312 309 308 307 304 304 307 305 301 295 292 291 291 289
184 201 215 230 227 222 227 212 220 243 256 254 287 275 249 271 307 314 319 323 315 313 315 317 318 314 312 316 314 312 310 307 304 305 306 306 305 303 301 298 296 294 293 292
188 202 206 209 239 229 215 221 209 243 245 262 268 285 291 293 298 308 315 314 305 303 309 313 313 310 309 308 308 309 310 306 302 302 301 300 300 300 300 297 296 294 292 291
189 202 179 163 159 169 232 198 212 226 234 239 253 268 268 275 281 292 301 300 303 307 309 311 309 312 310 306 305 309 312 308 307 304 303 302 301 300 299 298 296 295 294 294
192 193 175 204 214 214 220 200 205 204 234 246 255 284 292 291 292 292 301 303 306 308 308 309 313 312 308 306 307 311 309 308 306 304 303 302 300 299 299 298 297 295 294 293
192 193 172 183 243 234 225 198 245 250 260 278 284 285 287 294 287 289 297 303 307 307 307 310 310 309 307 305 308 310 308 308 307 305 304 302 302 300 298 297 296 295 294 293
193 179 187 186 225 231 244 244 250 262 267 265 277 282 286 294 300 300 305 308 311 311 310 310 311 311 309 308 309 308 308 307 306 306 304 304 303 301 300 300 299 298 298 297
199 189 191 210 228 235 242 254 261 273 269 263 260 287 297 301 303 304 306 308 307 307 308 308 308 309 307 307 308 307 307 307 307 307 307 306 305 304 302 301 300 299 298 298
185 197 208 223 232 237 239 241 249 257 276 257 260 286 294 296 298 301 300 303 305 307 306 307 307 306 306 307 309 307 308 309 309 309 309 308 307 306 306 305 304 304 302 301
199 211 220 220 230 236 242 246 256 253 276 268 290 291 294 294 297 296 300 301 302 304 305 305 306 306 307 308 308 309 311 311 310 310 309 309 309 310 309 307 305 304 301 299
201 212 218 225 231 231 248 258 269 275 277 284 286 294 297 299 296 300 303 304 306 308 309 309 308 308 309 309 311 313 312 311 311 312 314 314 313 312 311 309 307 305 303 301
209 221 222 227 229 238 249 259 268 268 279 280 286 292 291 291 295 303 305 308 308 307 308 309 309 310 311 313 313 312 312 313 317 317 316 317 316 314 314 313 312 310 307 305
Height
5920 5922 5923 5923 5926 5929 5931 5933 5934 5934 5936 5932 5927 5929 5928 5928 5928 5927 5927 5924 5921 5921 5918 5917 5916 5916 5914 5916 5916 5915 5914 5911 5909 5908 5907 5905 5903 5902 5903 5901 5900 5899 5899 5897
5917 5919 5921 5921 5927 5931 5931 5932 5937 5935 5937 5939 5933 5929 5925 5925 5921 5924 5922 5924 5924 5924 5921 5918 5919 5918 5917 5914 5914 5914 5913 5913 5912 5910 5909 5906 5905 5904 5903 5901 5900 5899 5898 5897
5915 5918 5919 5922 5926 5930 5934 5937 5937 5939 5938 5938 5934 5929 5925 5926 5922 5922 5920 5923 5922 5922 5921 5918 5917 5919 5921 5918 5914 5913 5913 5914 5913 5912 5912 5911 5908 5907 5904 5902 5900 5900 5899 5899
5911 5914 5914 5920 5928 5930 5934 5935 5936 5935 5935 5935 5935 5933 5928 5925 5927 5926 5923 5922 5915 5899 5914 5918 5918 5917 5916 5918 5918 5916 5915 5914 5912 5913 5911 5911 5910 5908 5905 5903 5902 5900 5899 5899
5908 5909 5913 5915 5922 5930 5932 5928 5932 5933 5934 5933 5934 5933 5928 5926 5928 5929 5932 5918 5908 5905 5906 5914 5915 5913 5915 5916 5918 5916 5914 5914 5912 5911 5910 5909 5908 5907 5906 5904 5903 5901 5899 5898
5902 5907 5910 5916 5920 5928 5929 5926 5928 5930 5931 5931 5932 5927 5926 5925 5928 5930 5930 5919 5915 5909 5911 5916 5914 5913 5912 5914 5913 5912 5912 5911 5911 5910 5908 5907 5906 5905 5904 5903 5901 5900 5898 5896
5897 5901 5906 5911 5916 5923 5924 5925 5927 5928 5928 5928 5928 5922 5918 5923 5925 5927 5922 5917 5915 5914 5914 5916 5910 5910 5909 5912 5913 5910 5909 5908 5906 5905 5904 5903 5902 5902 5901 5900 5899 5897 5896 5892
5893 5897 5900 5907 5912 5917 5920 5923 5925 5924 5926 5926 5924 5920 5918 5919 5921 5922 5920 5911 5910 5912 5912 5908 5907 5907 5899 5908 5908 5908 5907 5905 5904 5901 5898 5897 5896 5897 5897 5896 5894 5893 5891 5890
5889 5896 5901 5904 5910 5915 5917 5918 5921 5922 5922 5922 5919 5916 5914 5916 5917 5919 5918 5906 5904 5904 5903 5907 5900 5901 5900 5904 5907 5906 5904 5901 5899 5897 5895 5893 5890 5889 5888 5888 5888 5886 5885 5884
5885 5892 5900 5902 5906 5907 5911 5917 5917 5918 5919 5918 5914 5913 5911 5909 5913 5915 5913 5904 5899 5905 5906 5902 5897 5899 5902 5904 5904 5903 5900 5898 5896 5893 5892 5890 5889 5888 5883 5881 5879 5878 5877 5875
5883 5887 5892 5902 5901 5904 5906 5910 5911 5914 5916 5915 5910 5908 5908 5912 5911 5909 5906 5891 5877 5897 5903 5900 5902 5902 5902 5900 5899 5894 5889 5888 5890 5888 5885 5882 5881 5878 5877 5874 5872 5871 5869 5866
5880 5885 5889 5894 5899 5904 5903 5906 5910 5913 5914 5911 5907 5903 5901 5904 5904 5900 5906 5888 5889 5896 5899 5902 5901 5897 5897 5891 5888 5891 5886 5887 5885 5882 5877 5875 5873 5871 5868 5866 5863 5861 5860 5859
5878 5883 5886 5889 5894 5898 5899 5903 5907 5909 5907 5905 5904 5898 5900 5899 5900 5896 5893 5890 5892 5894 5897 5899 5896 5895 5894 5891 5889 5886 5884 5882 5879 5875 5871 5870 5865 5862 5860 5856 5852 5851 5851 5850
5874 5881 5881 5885 5888 5884 5895 5900 5901 5899 5901 5900 5900 5898 5895 5896 5896 5898 5893 5888 5887 5886 5887 5888 5892 5892 5886 5884 5883 5881 5878 5874 5870 5867 5864 5861 5857 5855 5851 5848 5845 5843 5841 5841
5869 5873 5875 5876 5879 5883 5887 5895 5894 5893 5894 5895 5896 5898 5896 5894 5895 5895 5892 5889 5884 5886 5886 5882 5879 5877 5878 5878 5876 5874 5870 5866 5863 5859 5856 5852 5847 5845 5842 5840 5838 5836 5833 5832
5864 5868 5869 5871 5876 5881 5885 5889 5891 5888 5884 5887 5889 5895 5895 5894 5885 5889 5885 5886 5887 5881 5878 5879 5878 5875 5873 5872 5868 5864 5861 5858 5853 5849 5846 5842 5839 5836 5833 5832 5830 5827 5824 5822
5859 5862 5869 5872 5872 5876 5881 5885 5889 5883 5880 5883 5884 5892 5894 5891 5889 5883 5884 5886 5885 5884 5882 5878 5874 5870 5870 5867 5862 5859 5856 5851 5846 5842 5839 5835 5832 5828 5825 5822 5820 5818 5815 5813
5854 5858 5864 5869 5871 5876 5876 5878 5879 5876 5872 5877 5882 5890 5892 5890 5889 5889 5887 5884 5882 5879 5875 5873 5870 5866 5863 5860 5856 5851 5847 5842 5838 5833 5829 5826 5823 5819 5816 5813 5811 5808 5805 5802
5851 5856 5860 5864 5865 5864 5858 5870 5867 5868 5866 5869 5878 5881 5883 5883 5883 5882 5880 5877 5874 5871 5868 5865 5862 5859 5855 5851 5846 5843 5837 5833 5829 5825 5821 5817 5814 5810 5807 5804 5801 5798 5795 5792
5848 5853 5858 5863 5858 5858 5862 5862 5868 5875 5872 5870 5872 5874 5876 5877 5874 5874 5872 5870 5867 5863 5859 5857 5855 5852 5848 5843 5839 5835 5829 5824 5820 5816 5812 5808 5805 5801 5798 5795 5792 5788 5784 5780
5843 5847 5852 5857 5858 5859 5859 5862 5864 5871 5872 5867 5869 5870 5871 5870 5867 5866 5863 5861 5858 5855 5852 5849 5846 5843 5838 5833 5830 5825 5821 5817 5812 5808 5804 5800 5796 5792 5788 5784 5781 5777 5773 5769
5836 5843 5848 5851 5851 5857 5860 5862 5868 5870 5867 5869 5868 5868 5866 5864 5862 5860 5858 5854 5851 5848 5845 5842 5838 5835 5830 5825 5822 5817 5813 5808 5804 5799 5795 5791 5786 5782 5778 5774 5770 5766 5763 5759
5834 5836 5843 5846 5849 5851 5855 5858 5861 5864 5862 5865 5865 5863 5860 5859 5857 5855 5853 5848 5844 5841 5837 5834 5831 5826 5821 5817 5813 5809 5804 5799 5795 5790 5785 5780 5776 5772 5768 5764 5760 5756 5751 5747
5826 5831 5834 5837 5841 5843 5843 5850 5855 5855 5858 5856 5857 5856 5854 5853 5852 5850 5845 5841 5839 5835 5830 5826 5822 5818 5813 5810 5806 5801 5796 5791 5786 5781 5777 5772 5768 5763 5759 5754 5750 5745 5740 5735
5816 5820 5824 5832 5833 5837 5841 5845 5847 5850 5851 5850 5850 5846 5845 5845 5843 5840 5837 5834 5830 5826 5822 5818 5814 5810 5807 5802 5798 5793 5788 5783 5778 5774 5770 5765 5759 5755 5749 5744 5739 5733 5727 5722
5811 5819 5821 5826 5828 5832 5838 5843 5846 5846 5844 5843 5842 5839 5838 5839 5836 5831 5827 5825 5822 5818 5814 5811 5807 5804 5800 5796 5791 5786 5781 5776 5772 5767 5762 5757 5751 5745 5739 5732 5726 5720 5714 5706